Location: Rumah Dana
(3.1167°N, 113.0167°E)
Time: 12:09:14
(UTC+00:00)

ARIANE 5 R/B - Pass Details

Date: 03 August 2024
Orbit: 572 x 35990 km, 7.1° (Epoch: 07 September)

Event Time Altitude Azimuth Distance (km) Brightness Sun altitude
Rises 12:18:54 0° 277° (W) 4,719 9.4 -23.9°
Reaches altitude 10° 12:22:57 10° 279° (W) 2,658 7.8 -24.8°
Enters shadow 12:27:18 68° 309° (NW) 644 3.7 -25.8°
